Regional Weather Roundup
Issued by NWS

Home | Current Version | Previous Version | Text Only | Print | Product List | Glossary Off
Versions: 1 2 3 4 5 6 7 8 9 10 11 12 13 14 15 16 17 18 19 20 21 22 23 24 25 26 27 28 29 30 31 32 33 34 35 36 37 38 39 40 41 42 43 44 45 46 47 48 49 50

054
ASUS43 KLMK 010510
RWRKY
KENTUCKY REGIONAL WEATHER ROUNDUP
NATIONAL WEATHER SERVICE LOUISVILLE KY
100 AM EDT MON MAY 01 2017

NOTE "FAIR" INDICATES FEW OR NO CLOUDS BELOW 12,000 FEET
WITH NO SIGNIFICANT WEATHER AND/OR OBSTRUCTIONS TO VISIBILITY.

KYZ001>023-026-027-061>063-070>075-010600-
WESTERN AND SOUTH CENTRAL KENTUCKY

CITY           SKY/WX    TMP DP  RH WIND       PRES   REMARKS
PADUCAH        PTCLDY    60  50  69 SW15G24   29.68R
HENDERSON        N/A    N/A N/A N/A MISG        N/A
OWENSBORO      LGT RAIN  66  64  93 S18       29.67R
HOPKINSVILLE   LGT RAIN  66  64  94 S15G28    29.69F FOG
BOWLING GREEN  CLOUDY    70  63  78 S20G28    29.73F
GLASGOW        LGT RAIN  67  61  80 S9        29.77S
$$

KYZ024-025-028>034-038-045-046-053-010600-
NORTH CENTRAL KENTUCKY

CITY           SKY/WX    TMP DP  RH WIND       PRES   REMARKS
LOUISVILLE/SDF LGT RAIN  70  63  78 S13       29.72F
LOUISVILLE/LOU CLOUDY    70  64  81 S9        29.73F
FORT KNOX      CLOUDY    66  63  88 S14       29.71F
$$

KYZ035>037-039>044-047>052-055>060-089>105-010600-
NORTHEAST KENTUCKY

CITY           SKY/WX    TMP DP  RH WIND       PRES   REMARKS
LEXINGTON      CLOUDY    72  61  68 S16       29.77F
COVINGTON      CLOUDY    70  62  76 S14G23    29.75R
FRANKFORT      CLOUDY    70  61  73 S10       29.76S
$$

KYZ054-064>069-076>088-106>120-010600-
SOUTHEAST KENTUCKY

CITY           SKY/WX    TMP DP  RH WIND       PRES   REMARKS
JACKSON        CLOUDY    73  58  59 VRB3      29.86F
LONDON         CLOUDY    67  60  78 VRB5      29.83F
SOMERSET       CLOUDY    64  61  88 S6        29.83F
MIDDLESBORO    CLOUDY    68  61  77 S9G20     29.91F
MONTICELLO     CLOUDY    68  63  84 SE13G22   29.83F
$$





USA.gov is the U.S. government's official web portal to all federal, state and local government web resources and services.